Showing default

GAOFEN 12 04, 57654

Orbit data source: Space-Track

GAOFEN 12 04, 57654 is a payload satellite owned by PLA SSF (CN) in SSO that was launched on Sun, 20 Aug 2023 UTC via a CHANG ZHENG 4C launch vehicle from the Jiuquan Satellite Launch Center, China (JSC). Payload-class satellites include a variety of spacecraft equipped with specific instruments for various scientific and technological missions. These include communications satellites like Starlink; space stations such as the ISS; scientific satellites like the Hubble; Earth observation satellites from companies like Planet Labs, Umbra, and HawkEye 360; GPS; miniature CubeSats for education and research; and military/defense satellites.

Loading next visibility...
Identifier
57654, 2023-123A
Orbit
SSO
Last TLE update
3 hours ago
Origin
Manufacturer
SAST
Mission
Operational Defense Radar Imaging
Bus & Motor
CS-L3000B?, Unknown motor
Mass
~3,000 kg wet, ~3,000 kg dry
Launch date (UTC)
2023-08-20 (2 years ago)
Launch vehicle
CHANG ZHENG 4C
Launch site
Jiuquan Satellite Launch Center, China (JSC)
Object type
Payload
Rocket body
Debris
Shape & HBR
Box + 3 Pan, 8 m
Radar Cross Section
10.846 m², Large (>1 m²)

Expand to show TLE details & history

TLE from 3 hours ago
0 GAOFEN 12 04
1 57654U 23123A   25186.85717498  .00000873  00000-0  12026-3 0  9991
2 57654  97.9098 105.0181 0002495  67.5638 292.5838 14.80696984101400
Epoch: 2025-07-05T20:34Z
TLE epoch observation values (Epoch: 2025-07-05T20:34:19.918Z)
Latitude
-0.00005°
Longitude
-127.65409°
Altitude
629.476 km
Speed
7.544 km/s
True Right ascension
07h 00m 04s
True Declination
0° 00' 00"
Sunlit
Object was in daylight at epoch
Visualization orbit readout
Latitude
-82.02989°
Longitude
-28.28057°
Altitude
657.077 km
Speed
7.527 km/s
Apparent Right ascension
22h 49m 55s
Apparent Declination
-69° 27' 50"
Sunlit
Object is in daylight
Visualization observer readout
Local Sidereal Time
11:20:35
Azimuth
174.601° S
Elevation
-60.174°
Doppler factor
1
Orbital elements
Apogee altitude
625.912 km
Perigee altitude
622.418 km
Semi-major axis
7,002.302 km
Eccentricity
0.00025
Inclination
97.9098°
RAAN
105.0181°
Arg. of periapsis
67.5638°
True anomaly
Unknown
Mean anomaly
292.5838°
Eccentric anomaly
Unknown
Mean motion
3.70409 °/min
Orbital period
97.19 mins
BSTAR
0.00012026
Loading maneuver chart data...
Loading SW <> Apogee altitude chart data...
Loading historical data...
Loading historical data...
Loading historical data...
Loading historical data...
Loading historical data...
Loading historical data...
Loading historical data...
Other satellites on launch #123 in the year 2023 (2023-08-20 UTC)

GAOFEN 12 04 Visibility forecast

Observer location: undefined°, undefined°

Span
Click to sort rows by Start time (UTC) header in descending order
Start Az.
Max El. time (UTC)
Max El. Az.
Max El.
End time (UTC)
End Az.
7 mins2025-07-06 06:52:14.424Z30.56° NE2025-07-06 06:56:14.424Z98.496° ESE30.381°2025-07-06 06:59:14.424Z158.27° S
5 mins2025-07-06 08:30:14.424Z326.436° NNW2025-07-06 08:32:14.424Z292.639° NW18.535°2025-07-06 08:35:14.424Z247.973° W
5 mins2025-07-06 17:49:14.424Z105.816° ESE2025-07-06 17:51:14.424Z62.144° ENE24.519°2025-07-06 17:54:14.424Z14.287° NNE
5 mins2025-07-06 19:25:14.424Z227.249° WSW2025-07-06 19:27:14.424Z266.832° W22.726°2025-07-06 19:30:14.424Z316.189° NNW
|